When you browse on this site, cookies collect data to enhance your experience and personalize the content and advertising you see.
Visit our Privacy Policy to learn more. By continuing to use the site, you agree to this use of cookies and data.
  • En España
  • Lista de países
  • Para 7 días
  • Temperatura del agua
  • Mapa Satelital
  • El tiempo en el mapa
  • Informadores
  • user-avatar
    Iniciar sesión

    Tiempo cada hora Atlixco

    Hoy, 25 Abril, Jueves

    Tiempo Temperatura Precipitaciones Viento Presión Humedad
    00:00 +21°C° 0 mm 1 mps 610 mmHg 34%
    01:00 +20°C° 0 mm 1 mps 610 mmHg 34%
    02:00 +20°C° 0 mm 1 mps 610 mmHg 35%
    03:00 +19°C° 0 mm 1 mps 610 mmHg 36%
    04:00 +19°C° 0 mm 1 mps 610 mmHg 37%
    05:00 +18°C° 0 mm 1 mps 610 mmHg 38%
    06:00 +21°C° 0 mm 1 mps 611 mmHg 35%
    07:00 +23°C° 0 mm 1 mps 612 mmHg 32%
    08:00 +25°C° 0 mm 2 mps 613 mmHg 29%
    09:00 +27°C° 0 mm 2 mps 614 mmHg 26%
    10:00 +28°C° 0 mm 3 mps 614 mmHg 23%
    11:00 +30°C° 0 mm 3 mps 615 mmHg 20%
    12:00 +32°C° 0 mm 4 mps 614 mmHg 18%
    13:00 +32°C° 0 mm 4 mps 614 mmHg 17%
    14:00 +33°C° 0 mm 5 mps 614 mmHg 16%
    15:00 +32°C° 0 mm 4 mps 614 mmHg 16%
    16:00 +30°C° 0 mm 4 mps 613 mmHg 17%
    17:00 +29°C° 0 mm 4 mps 613 mmHg 18%
    18:00 +28°C° 0 mm 3 mps 613 mmHg 20%
    19:00 +26°C° 0 mm 2 mps 613 mmHg 22%
    20:00 +24°C° 0 mm 1 mps 613 mmHg 24%
    21:00 +23°C° 0 mm 1 mps 613 mmHg 25%
    22:00 +23°C° 0 mm 1 mps 613 mmHg 26%
    23:00 +22°C° 0 mm 1 mps 614 mmHg 27%

    Mañana, 26 Abril, Viernes

    Tiempo Temperatura Precipitaciones Viento Presión Humedad
    00:00 +21°C° 0 mm 1 mps 613 mmHg 32%
    01:00 +21°C° 0 mm 1 mps 613 mmHg 37%
    02:00 +19°C° 0 mm 2 mps 613 mmHg 42%
    03:00 +19°C° 0 mm 2 mps 613 mmHg 48%
    04:00 +18°C° 0 mm 2 mps 613 mmHg 54%
    05:00 +18°C° 0 mm 2 mps 613 mmHg 59%
    06:00 +20°C° 0 mm 2 mps 614 mmHg 53%
    07:00 +23°C° 0 mm 2 mps 615 mmHg 48%
    08:00 +25°C° 0 mm 2 mps 616 mmHg 42%
    09:00 +27°C° 0 mm 2 mps 616 mmHg 37%
    10:00 +28°C° 0 mm 2 mps 616 mmHg 33%
    11:00 +30°C° 0 mm 2 mps 617 mmHg 28%
    12:00 +30°C° 0.1 mm 2 mps 616 mmHg 28%
    13:00 +30°C° 0.1 mm 3 mps 615 mmHg 29%
    14:00 +30°C° 0.1 mm 3 mps 615 mmHg 29%
    15:00 +28°C° 0.5 mm 3 mps 614 mmHg 34%
    16:00 +27°C° 0.5 mm 3 mps 613 mmHg 40%
    17:00 +25°C° 0.5 mm 3 mps 613 mmHg 45%
    18:00 +24°C° 0.5 mm 3 mps 613 mmHg 49%
    19:00 +22°C° 0.5 mm 3 mps 614 mmHg 53%
    20:00 +21°C° 0.5 mm 2 mps 614 mmHg 56%
    21:00 +21°C° 0.3 mm 2 mps 614 mmHg 58%
    22:00 +20°C° 0.3 mm 2 mps 614 mmHg 60%
    23:00 +20°C° 0.3 mm 1 mps 614 mmHg 63%

    Pasado mañana, 27 Abril, Sábado

    Tiempo Temperatura Precipitaciones Viento Presión Humedad
    00:00 +20°C° 0.1 mm 1 mps 613 mmHg 63%
    01:00 +20°C° 0.1 mm 1 mps 613 mmHg 64%
    02:00 +19°C° 0.1 mm 1 mps 612 mmHg 65%
    03:00 +19°C° 0 mm 1 mps 612 mmHg 66%
    04:00 +19°C° 0 mm 1 mps 612 mmHg 66%
    05:00 +16°C° 0 mm 0 mps 612 mmHg 67%
    06:00 +20°C° 0 mm 1 mps 613 mmHg 59%
    07:00 +23°C° 0 mm 1 mps 614 mmHg 51%
    08:00 +25°C° 0 mm 1 mps 615 mmHg 43%
    09:00 +26°C° 0 mm 2 mps 615 mmHg 39%
    10:00 +28°C° 0 mm 2 mps 615 mmHg 35%
    11:00 +29°C° 0 mm 3 mps 615 mmHg 31%
    12:00 +30°C° 0 mm 3 mps 614 mmHg 30%
    13:00 +30°C° 0 mm 3 mps 614 mmHg 30%
    14:00 +30°C° 0 mm 4 mps 613 mmHg 29%
    15:00 +30°C° 0 mm 4 mps 613 mmHg 30%
    16:00 +29°C° 0 mm 3 mps 612 mmHg 30%
    17:00 +29°C° 0 mm 3 mps 612 mmHg 31%
    18:00 +27°C° 0.2 mm 3 mps 612 mmHg 34%
    19:00 +26°C° 0.2 mm 2 mps 612 mmHg 37%
    20:00 +25°C° 0.2 mm 1 mps 613 mmHg 40%
    21:00 +25°C° 0.1 mm 1 mps 613 mmHg 43%
    22:00 +24°C° 0.1 mm 1 mps 613 mmHg 46%
    23:00 +23°C° 0.1 mm 1 mps 613 mmHg 49%

    28 Abril, Domingo

    Tiempo Temperatura Precipitaciones Viento Presión Humedad
    00:00 +23°C° 0 mm 1 mps 612 mmHg 49%
    01:00 +22°C° 0 mm 1 mps 612 mmHg 50%
    02:00 +22°C° 0 mm 1 mps 611 mmHg 50%
    03:00 +21°C° 0 mm 1 mps 611 mmHg 51%
    04:00 +21°C° 0 mm 1 mps 611 mmHg 51%
    05:00 +20°C° 0 mm 1 mps 611 mmHg 51%
    06:00 +22°C° 0 mm 1 mps 612 mmHg 45%
    07:00 +24°C° 0 mm 1 mps 613 mmHg 40%
    08:00 +26°C° 0 mm 1 mps 614 mmHg 34%
    09:00 +27°C° 0 mm 2 mps 614 mmHg 31%
    10:00 +29°C° 0 mm 2 mps 615 mmHg 28%
    11:00 +30°C° 0 mm 2 mps 615 mmHg 25%
    12:00 +30°C° 0 mm 3 mps 614 mmHg 24%
    13:00 +31°C° 0 mm 3 mps 613 mmHg 23%
    14:00 +31°C° 0 mm 3 mps 613 mmHg 23%
    15:00 +30°C° 0 mm 3 mps 613 mmHg 23%
    16:00 +30°C° 0 mm 3 mps 612 mmHg 24%
    17:00 +29°C° 0 mm 2 mps 612 mmHg 24%
    18:00 +28°C° 0.1 mm 2 mps 613 mmHg 27%
    19:00 +27°C° 0.1 mm 2 mps 613 mmHg 30%
    20:00 +26°C° 0.1 mm 2 mps 613 mmHg 33%
    21:00 +25°C° 0.1 mm 2 mps 613 mmHg 36%
    22:00 +24°C° 0.1 mm 1 mps 613 mmHg 40%
    23:00 +23°C° 0.1 mm 1 mps 613 mmHg 43%

    29 Abril, Lunes

    Tiempo Temperatura Precipitaciones Viento Presión Humedad
    00:00 +23°C° 0 mm 1 mps 612 mmHg 46%
    01:00 +20°C° 0 mm 0 mps 612 mmHg 50%
    02:00 +19°C° 0 mm 0 mps 611 mmHg 53%
    03:00 +19°C° 0 mm 0 mps 611 mmHg 55%
    04:00 +19°C° 0 mm 0 mps 611 mmHg 57%
    05:00 +20°C° 0 mm 1 mps 611 mmHg 59%
    06:00 +22°C° 0 mm 1 mps 612 mmHg 55%
    07:00 +24°C° 0 mm 1 mps 613 mmHg 50%
    08:00 +26°C° 0 mm 2 mps 614 mmHg 45%
    09:00 +27°C° 0.1 mm 2 mps 614 mmHg 41%
    10:00 +29°C° 0.1 mm 2 mps 615 mmHg 36%
    11:00 +30°C° 0.1 mm 3 mps 615 mmHg 32%
    12:00 +31°C° 0.1 mm 3 mps 614 mmHg 30%
    13:00 +31°C° 0.1 mm 3 mps 614 mmHg 29%
    14:00 +33°C° 0.1 mm 3 mps 613 mmHg 27%
    15:00 +31°C° 0.3 mm 3 mps 613 mmHg 29%
    16:00 +30°C° 0.3 mm 2 mps 613 mmHg 31%
    17:00 +29°C° 0.3 mm 2 mps 613 mmHg 32%
    18:00 +28°C° 0.4 mm 2 mps 613 mmHg 38%
    19:00 +26°C° 0.4 mm 2 mps 613 mmHg 44%
    20:00 +25°C° 0.4 mm 2 mps 614 mmHg 49%
    21:00 +24°C° 0.6 mm 2 mps 613 mmHg 53%
    22:00 +23°C° 0.6 mm 2 mps 613 mmHg 57%
    23:00 +22°C° 0.6 mm 1 mps 613 mmHg 60%

    30 Abril, Martes

    Tiempo Temperatura Precipitaciones Viento Presión Humedad
    00:00 +22°C° 0.1 mm 1 mps 612 mmHg 60%
    01:00 +22°C° 0.1 mm 1 mps 612 mmHg 60%
    02:00 +21°C° 0.1 mm 1 mps 611 mmHg 61%
    03:00 +21°C° 0 mm 1 mps 611 mmHg 59%
    04:00 +21°C° 0 mm 1 mps 611 mmHg 58%
    05:00 +20°C° 0 mm 1 mps 612 mmHg 57%
    06:00 +22°C° 0 mm 1 mps 613 mmHg 50%
    07:00 +24°C° 0 mm 1 mps 614 mmHg 44%
    08:00 +26°C° 0 mm 1 mps 615 mmHg 37%
    09:00 +28°C° 0 mm 2 mps 615 mmHg 34%
    10:00 +29°C° 0 mm 2 mps 615 mmHg 31%
    11:00 +31°C° 0 mm 2 mps 615 mmHg 29%
    12:00 +31°C° 0.1 mm 2 mps 614 mmHg 28%
    13:00 +31°C° 0.1 mm 3 mps 614 mmHg 28%
    14:00 +31°C° 0.1 mm 3 mps 613 mmHg 28%
    15:00 +30°C° 0.3 mm 2 mps 613 mmHg 31%
    16:00 +29°C° 0.3 mm 2 mps 612 mmHg 34%
    17:00 +28°C° 0.3 mm 1 mps 612 mmHg 37%
    18:00 +27°C° 0.3 mm 2 mps 612 mmHg 42%
    19:00 +26°C° 0.3 mm 2 mps 613 mmHg 47%
    20:00 +24°C° 0.3 mm 3 mps 613 mmHg 52%
    21:00 +23°C° 2.1 mm 2 mps 613 mmHg 58%
    22:00 +21°C° 2.1 mm 2 mps 612 mmHg 63%
    23:00 +21°C° 2.1 mm 1 mps 612 mmHg 68%
    Mostrar más